This is the latest recevied weather packets stored in our database for station/object SQ7RAF-15. If no packets are shown the sender has not sent any weather packets the latest 1 day(s).
| Time | Temp. | Humidity | Pressure | Rain* | Wind** | Luminosity | Snow |
|---|---|---|---|---|---|---|---|
| 1777979161 | 27.22° C | 31% | 1007.2 hPa | 0 mm | 1.34 m/s, 171° | 385 W/m² | - |
| 1777978825 | 27.22° C | 32% | 1007.2 hPa | 0 mm | 0.89 m/s, 241° | 611 W/m² | - |
| 1777978536 | 27.22° C | 32% | 1007.3 hPa | 0 mm | 1.34 m/s, 197° | 640 W/m² | - |
| 1777978233 | 26.67° C | 33% | 1007.4 hPa | 0 mm | 1.34 m/s, 211° | 593 W/m² | - |
| 1777977944 | 26.67° C | 33% | 1007.4 hPa | 0 mm | 1.34 m/s, 157° | 486 W/m² | - |
| 1777977624 | 26.11° C | 34% | 1007.6 hPa | 0 mm | 1.34 m/s, 196° | 473 W/m² | - |
| 1777977337 | 26.67° C | 34% | 1007.6 hPa | 0 mm | 1.79 m/s, 192° | 481 W/m² | - |
| 1777977016 | 26.11° C | 36% | 1007.6 hPa | 0 mm | 0.89 m/s, 258° | 426 W/m² | - |
| 1777976745 | 25.56° C | 36% | 1007.7 hPa | 0 mm | 0.89 m/s, 132° | 394 W/m² | - |
| 1777976426 | 26.11° C | 36% | 1007.8 hPa | 0 mm | 0.45 m/s, 55° | 263 W/m² | - |
| 1777976137 | 26.11° C | 36% | 1007.9 hPa | 0 mm | 0.45 m/s, 254° | 244 W/m² | - |
| 1777975816 | 26.11° C | 35% | 1008 hPa | 0 mm | 0.89 m/s, 212° | 255 W/m² | - |
| 1777975529 | 25.56° C | 36% | 1007.9 hPa | 0 mm | 0.45 m/s, 246° | 323 W/m² | - |
| 1777975241 | 26.11° C | 35% | 1008.1 hPa | 0 mm | 1.79 m/s, 133° | 418 W/m² | - |
| 1777974920 | 25.56° C | 35% | 1008.3 hPa | 0 mm | 1.34 m/s, 215° | 460 W/m² | - |
| 1777974632 | 26.67° C | 35% | 1008.2 hPa | 0 mm | 0.89 m/s, 274° | 464 W/m² | - |
| 1777974334 | 26.67° C | 35% | 1008.3 hPa | 0 mm | 0.89 m/s, 214° | 520 W/m² | - |
| 1777974040 | 26.67° C | 34% | 1008.3 hPa | 0 mm | 1.34 m/s, 183° | 457 W/m² | - |
| 1777973721 | 26.11° C | 34% | 1008.3 hPa | 0 mm | 1.34 m/s, 175° | 662 W/m² | - |
| 1777973433 | 26.11° C | 36% | 1008.3 hPa | 0 mm | 1.34 m/s, 129° | 631 W/m² | - |
| 1777973145 | 25.56° C | 36% | 1008.5 hPa | 0 mm | 0.89 m/s, 128° | 591 W/m² | - |
| 1777972825 | 26.11° C | 36% | 1008.4 hPa | 0 mm | 2.24 m/s, 174° | 545 W/m² | - |
| 1777972536 | 26.11° C | 36% | 1008.6 hPa | 0 mm | 1.34 m/s, 199° | 486 W/m² | - |
| 1777972216 | 25.56° C | 36% | 1008.6 hPa | 0 mm | 2.24 m/s, 145° | 632 W/m² | - |
| 1777971928 | 26.11° C | 36% | 1008.6 hPa | 0 mm | 1.34 m/s, 226° | 644 W/m² | - |
* Rain latest hour (hover to see other rain measurements)
** Current wind speed in m/s (hover to see current wind gust speed)